Regional Weather Roundup
Issued by NWS

Home | Current Version | Previous Version | Text Only | Print | Product List | Glossary On
Versions: 1 2 3 4 5 6 7 8 9 10 11 12 13 14 15 16 17 18 19 20 21 22 23 24 25 26 27
000
ASUS42 KKEY 282010
RWRKEY

FLORIDA REGIONAL WEATHER ROUNDUP FOR THE FLORIDA KEYS
NATIONAL WEATHER SERVICE KEY WEST FLORIDA
400 PM EDT SAT MAY 28 2016

...SOUTH FLORIDA AND THE KEYS...

CITY           SKY/WX    TMP DP  RH WIND       PRES   REMARKS
FORT MYERS     CLOUDY    77  70  79 NW5       30.01R
SW REGIONAL AP CLOUDY    80  70  71 W6        30.01S
NAPLES         TSTM      70  67  90 N10       30.02R VSB 1/4
MIAMI          CLOUDY    83  67  58 E8        29.98F
WEST KENDALL   PTSUNNY   84  70  62 SE7       29.98S
HOMESTEAD      PTSUNNY   82  73  73 E7        29.98F
MARATHON       SUNNY     87  69  54 S6        29.98F HX  91
BOCA CHICA NAS MOSUNNY   86  69  56 SE7       29.98F HX  90
KEY WEST INTL  MOSUNNY   85  69  58 SE6       29.98F

...INTERNATIONAL WEATHER...

CITY           SKY/WX    TMP DP  RH WIND       PRES   REMARKS
NASSAU BAHAMAS MOSUNNY   90  77  66 N5        30.01S HX 102
CANCUN MEXICO  MOSUNNY   88  75  66 E14       29.94R HX  97
COZUMEL MEXICO PTSUNNY   86  73  66 SE14      29.92F HX  93

ADJACENT COASTAL WATERS...

STATION/POSITION TIME  SKY/WX   TEMP    WIND        PRES    WAVE
                                AIR SEA DIR/SP/G            HT/PER
                 (UTC)          (F)     (DEG/KT/KT) (MB)    (FT/S)
PULASKI SHOAL LI 2000            81     100/  7/  8 1015.6F
SAND KEY         1950            81                 1016.0F
SOMBRERO KEY     NOT AVBL
LONG KEY         1900            84 85   CALM  /  1 1016.4F
MOLASSES REEF    2000            82 84   CALM  /  2 1015.5F
FOWEY ROCKS      2000            78 82   40/  4/  5 1016.1F

$$




USA.gov is the U.S. government's official web portal to all federal, state and local government web resources and services.